Showing default

JACKAL-01, 59127

Orbit data source: Space-Track

JACKAL-01, 59127 is a payload satellite owned by True Anomaly (US) in SSO that was launched on Mon, 04 Mar 2024 UTC via an FALCON 9 launch vehicle from the Air Force Western Test Range (AFWTR). Payload-class satellites include a variety of spacecraft equipped with specific instruments for various scientific and technological missions. These include communications satellites like Starlink; space stations such as the ISS; scientific satellites like the Hubble; Earth observation satellites from companies like Planet Labs, Umbra, and HawkEye 360; GPS; miniature CubeSats for education and research; and military/defense satellites.

Loading next visibility...
Identifier
59127, 2024-043AF
Orbit
SSO
Country
Flag of USUS
Related business
Manufacturer
True Anomaly
Mission
Operational Defense Technology
Bus & Motor
JACKAL, Unknown motor
Mass
275 kg wet, 275 kg dry
Launch date (UTC)
2024-03-04 (1 year ago)
Launch vehicle
FALCON 9
Launch site
Air Force Western Test Range (AFWTR)
Object type
Payload
Rocket body
Debris
Shape & HBR
Box + 4 Pan, 0.1 m
Radar Cross Section
0.080 m², Medium (>0.1 m² and < 1m²)

Expand to show TLE details & history
Last TLE update: 14 hours ago

TLE from 14 hours ago
0 JACKAL-01
1 59127U 24043AF  25241.89335653  .00018563  00000-0  57399-3 0  9992
2 59127  97.5227  13.4465 0008979 176.2301 183.9011 15.33517898 82748
Epoch: 2025-08-29T21:26Z
TLE epoch observation values (Epoch: 2025-08-29T21:26:26.004Z)
Latitude
0.00005°
Longitude
73.50267°
Altitude
474.563 km
Speed
7.625 km/s
True Right ascension
00h 53m 47s
True Declination
0° 00' 00"
Sunlit
Object was in full shadow at epoch
Visualization orbit readout
Latitude
Unknown
Longitude
Unknown
Altitude
Unknown
Speed
Unknown
Apparent Right ascension
Unknown
Apparent Declination
Unknown
Sunlit
N/A
Visualization observer readout
Local Sidereal Time
02:57:11
Azimuth
Unknown
Elevation
Unknown
Doppler factor
Unknown
Orbital elements
Apogee altitude
468.421 km
Perigee altitude
456.137 km
Semi-major axis
6,840.416 km
Eccentricity
0.0009
Inclination
97.5227°
RAAN
13.4465°
Arg. of periapsis
176.2301°
True anomaly
183.89411°
Mean anomaly
183.9011°
Eccentric anomaly
183.8976°
Mean motion
3.83636 °/min
Orbital period
93.84 mins
BSTAR
0.00057399
Loading maneuver chart data...
Computing Atmospheric mass density...
Loading historical data...
Loading historical data...
Loading historical data...
Loading historical data...
Loading historical data...
Loading historical data...
Loading historical data...

Documentation

Showing up to 5 results
|